IW8RUI-5 Weather Reports


Display with metric or nautical units.
time (UTC)temp
F
wind
direction
speed
MPH
gust
MPH
rain 1hr
in
rain 24hr
in
rain mn
in
humidity
%
barometer
mb
20260906045929 63 143 0.0 0.0 0.00 0.00 0.00 13 1015.0
20260906045428 63 151 0.0 0.0 0.00 0.00 0.00 13 1015.0
20260906044928 63 143 0.0 0.0 0.00 0.00 0.00 13 1015.0
20260906044430 63 160 0.0 0.0 0.00 0.00 0.00 13 1015.0
20260906043428 63 157 0.0 0.0 0.00 0.00 0.00 13 1015.0
20260906042930 63 146 0.0 0.0 0.00 0.00 0.00 13 1015.0
20260906042431 63 170 0.0 0.0 0.00 0.00 0.00 13 1014.0
20260906041928 63 156 0.0 0.0 0.00 0.00 0.00 13 1014.0
20260906041429 63 168 0.0 0.0 0.00 0.00 0.00 13 1014.0
20260906040928 63 167 0.0 0.0 0.00 0.00 0.00 13 1014.0
20260906040430 64 169 0.0 0.0 0.00 0.00 0.00 13 1014.0
20260906035928 64 170 0.0 0.0 0.00 0.00 0.00 13 1014.0
20260906035429 64 156 0.0 0.0 0.00 0.00 0.00 13 1014.0
20260906034930 64 161 0.0 0.0 0.00 0.00 0.00 13 1014.0
20260906034429 64 158 0.0 0.0 0.00 0.00 0.00 13 1014.0
20260906033930 64 143 0.0 0.0 0.00 0.00 0.00 13 1014.0
20260906033429 64 161 0.0 0.0 0.00 0.00 0.00 13 1014.0
20260906032930 64 159 0.0 0.0 0.00 0.00 0.00 10 1014.0
20260906032431 64 148 0.0 0.0 0.00 0.00 0.00 10 1014.0
20260906031429 64 155 0.0 0.0 0.00 0.00 0.00 10 1014.0
20260906025928 64 143 0.0 0.0 0.00 0.00 0.00 10 1014.0
20260906023929 64 147 0.0 0.0 0.00 0.00 0.00 10 1015.0
20260906021928 64 146 0.0 0.0 0.00 0.00 0.00 10 1015.0
20260906021429 64 155 0.0 0.0 0.00 0.00 0.00 10 1015.0
20260906020430 64 144 0.0 0.0 0.00 0.00 0.00 10 1015.0
20260906015430 64 145 0.0 0.0 0.00 0.00 0.00 10 1015.0
20260906013429 64 168 0.0 0.0 0.00 0.00 0.00 10 1015.0
20260906010929 64 142 0.0 0.0 0.00 0.00 0.00 10 1015.0
20260906010429 64 146 0.0 0.0 0.00 0.00 0.00 10 1015.0
20260906004929 64 160 0.0 0.0 0.00 0.00 0.00 10 1015.0
20260906004429 64 166 0.0 0.0 0.00 0.00 0.00 10 1015.0
20260906002929 64 164 0.0 0.0 0.00 0.00 0.00 10 1015.0
20260906002429 65 142 0.0 0.0 0.00 0.00 0.00 10 1015.0
20260906001929 65 148 0.0 0.0 0.00 0.00 0.00 10 1015.0
20260906001429 65 143 0.0 0.0 0.00 0.00 0.00 10 1015.0
20260906000429 64 160 0.0 0.0 0.00 0.00 0.00 10 1015.0
20260905235929 65 169 0.0 0.0 0.00 0.00 0.00 10 1015.0
20260905235430 65 153 0.0 0.0 0.00 0.00 0.00 10 1015.0
20260905234929 65 161 0.0 0.0 0.00 0.00 0.00 10 1015.0
20260905234429 65 168 0.0 0.0 0.00 0.00 0.00 10 1015.0
20260905233929 65 161 0.0 0.0 0.00 0.00 0.00 10 1015.0
20260905233429 65 159 0.0 0.0 0.00 0.00 0.00 10 1015.0
20260905232929 65 168 0.0 0.0 0.00 0.00 0.00 10 1015.0
20260905232429 65 142 0.0 0.0 0.00 0.00 0.00 10 1015.0
20260905231931 64 154 0.0 0.0 0.00 0.00 0.00 10 1015.0
20260905203428 64 169 0.0 0.0 0.00 0.00 0.00 13 1015.0
20260905201928 65 152 0.0 0.0 0.00 0.00 0.00 13 1015.0
20260905195928 64 141 0.0 0.0 0.00 0.00 0.00 13 1015.0
20260905194929 64 168 0.0 0.0 0.00 0.00 0.00 13 1015.0
20260905193428 64 144 0.0 0.0 0.00 0.00 0.00 15 1015.0
20260905191428 65 142 0.0 0.0 0.00 0.00 0.00 15 1015.0
20260905185928 65 156 0.0 0.0 0.00 0.00 0.00 15 1015.0
20260905184931 65 142 0.0 0.0 0.00 0.00 0.00 15 1015.0
20260905181428 66 150 0.0 0.0 0.00 0.00 0.00 15 1015.0
20260905174429 67 143 0.0 0.0 0.00 0.00 0.00 15 1015.0
20260905165929 73 168 0.0 0.0 0.00 0.00 0.00 13 1015.0
20260905161929 78 145 0.0 0.0 0.00 0.00 0.00 12 1015.0
20260905161428 79 143 0.0 0.0 0.00 0.00 0.00 12 1015.0
20260905160428 79 144 0.0 0.0 0.00 0.00 0.00 12 1015.0
20260905155929 80 169 0.0 0.0 0.00 0.00 0.00 12 1015.0
20260905154928 79 149 0.0 0.0 0.00 0.00 0.00 12 1015.0
20260905154428 79 154 0.0 0.0 0.00 0.00 0.00 12 1015.0
20260905151929 77 145 0.0 0.0 0.00 0.00 0.00 12 1015.0
20260905150429 78 143 0.0 0.0 0.00 0.00 0.00 12 1015.0
20260905145936 78 147 0.0 0.0 0.00 0.00 0.00 12 1015.0
20260905144929 78 143 0.0 0.0 0.00 0.00 0.00 12 1015.0
20260905141929 79 154 0.0 0.0 0.00 0.00 0.00 12 1015.0
20260905141429 79 148 0.0 0.0 0.00 0.00 0.00 12 1015.0
20260905140929 80 164 0.0 0.0 0.00 0.00 0.00 12 1015.0
20260905135928 78 160 0.0 0.0 0.00 0.00 0.00 12 1015.0
20260905135429 78 167 0.0 0.0 0.00 0.00 0.00 12 1015.0
20260905134428 78 169 0.0 0.0 0.00 0.00 0.00 12 1015.0
20260905132428 77 143 0.0 0.0 0.00 0.00 0.00 13 1015.0
20260905130929 76 156 0.0 0.0 0.00 0.00 0.00 13 1015.0
20260905124429 76 146 0.0 0.0 0.00 0.00 0.00 13 1015.0
20260905123429 76 144 0.0 0.0 0.00 0.00 0.00 13 1015.0
20260905122927 75 150 0.0 0.0 0.00 0.00 0.00 13 1015.0
20260905122429 76 167 0.0 0.0 0.00 0.00 0.00 13 1015.0
20260905121929 76 165 0.0 0.0 0.00 0.00 0.00 13 1015.0
20260905120929 76 154 0.0 0.0 0.00 0.00 0.00 13 1015.0
20260905120429 76 169 0.0 0.0 0.00 0.00 0.00 13 1015.0
20260905115929 76 160 0.0 0.0 0.00 0.00 0.00 10 1015.0
20260905115429 75 163 0.0 0.0 0.00 0.00 0.00 10 1015.0
20260905114929 75 144 0.0 0.0 0.00 0.00 0.00 10 1015.0
20260905114429 75 147 0.0 0.0 0.00 0.00 0.00 10 1015.0
20260905113929 75 144 0.0 0.0 0.00 0.00 0.00 10 1015.0
20260905113429 75 142 0.0 0.0 0.00 0.00 0.00 10 1015.0
20260905111929 76 143 0.0 0.0 0.00 0.00 0.00 10 1015.0
20260905111429 75 157 0.0 0.0 0.00 0.00 0.00 10 1015.0
20260905110929 75 164 0.0 0.0 0.00 0.00 0.00 10 1015.0
20260905110429 75 146 0.0 0.0 0.00 0.00 0.00 10 1015.0
20260905105929 76 164 0.0 0.0 0.00 0.00 0.00 10 1015.0
20260905101929 75 151 0.0 0.0 0.00 0.00 0.00 10 1015.0
20260905100427 75 145 0.0 0.0 0.00 0.00 0.00 10 1015.0
20260905095929 75 169 0.0 0.0 0.00 0.00 0.00 10 1015.0
20260905095429 75 169 0.0 0.0 0.00 0.00 0.00 10 1015.0
20260905094929 75 155 0.0 0.0 0.00 0.00 0.00 10 1015.0
20260905094429 74 146 0.0 0.0 0.00 0.00 0.00 10 1015.0
20260905093929 74 156 0.0 0.0 0.00 0.00 0.00 10 1015.0
20260905093429 74 171 0.0 0.0 0.00 0.00 0.00 13 1015.0
20260905092929 74 153 0.0 0.0 0.00 0.00 0.00 13 1015.0
20260905092429 74 170 0.0 0.0 0.00 0.00 0.00 13 1015.0
20260905091927 74 170 0.0 0.0 0.00 0.00 0.00 13 1015.0
20260905091429 74 146 0.0 0.0 0.00 0.00 0.00 13 1015.0
20260905090929 74 158 0.0 0.0 0.00 0.00 0.00 13 1015.0
20260905085929 73 144 0.0 0.0 0.00 0.00 0.00 13 1015.0
20260905085427 73 169 0.0 0.0 0.00 0.00 0.00 13 1015.0
20260905084927 73 152 0.0 0.0 0.00 0.00 0.00 13 1015.0
20260905084430 72 169 0.0 0.0 0.00 0.00 0.00 13 1015.0
20260905083929 72 170 0.0 0.0 0.00 0.00 0.00 14 1015.0
20260905083427 72 171 0.0 0.0 0.00 0.00 0.00 14 1015.0
20260905082927 71 143 0.0 0.0 0.00 0.00 0.00 14 1015.0
20260905082429 71 169 0.0 0.0 0.00 0.00 0.00 14 1015.0
20260905081929 71 151 0.0 0.0 0.00 0.00 0.00 14 1015.0
20260905081429 70 144 0.0 0.0 0.00 0.00 0.00 12 1015.0
20260905080929 70 150 0.0 0.0 0.00 0.00 0.00 12 1015.0
20260905080427 69 149 0.0 0.0 0.00 0.00 0.00 12 1015.0
20260905075927 69 144 0.0 0.0 0.00 0.00 0.00 12 1015.0
20260905075429 68 156 0.0 0.0 0.00 0.00 0.00 12 1015.0
20260905074929 68 144 0.0 0.0 0.00 0.00 0.00 12 1015.0
20260905074427 68 169 0.0 0.0 0.00 0.00 0.00 10 1015.0
20260905073927 67 151 0.0 0.0 0.00 0.00 0.00 10 1015.0
20260905073427 66 169 0.0 0.0 0.00 0.00 0.00 10 1015.0
20260905072929 66 150 0.0 0.0 0.00 0.00 0.00 10 1015.0
20260905072427 66 154 0.0 0.0 0.00 0.00 0.00 10 1015.0
20260905071927 65 150 0.0 0.0 0.00 0.00 0.00 10 1015.0
20260905071429 65 147 0.0 0.0 0.00 0.00 0.00 10 1015.0
20260905070927 64 143 0.0 0.0 0.00 0.00 0.00 10 1015.0
20260905070427 64 158 0.0 0.0 0.00 0.00 0.00 10 1015.0
20260905065928 63 165 0.0 0.0 0.00 0.00 0.00 10 1015.0
20260905065429 63 170 0.0 0.0 0.00 0.00 0.00 10 1015.0
20260905064929 63 165 0.0 0.0 0.00 0.00 0.00 10 1015.0
20260905064429 63 144 0.0 0.0 0.00 0.00 0.00 10 1015.0
20260905063429 62 149 0.0 0.0 0.00 0.00 0.00 10 1015.0
20260905062929 62 167 0.0 0.0 0.00 0.00 0.00 10 1015.0
20260905062427 62 161 0.0 0.0 0.00 0.00 0.00 10 1015.0
20260905061927 62 164 0.0 0.0 0.00 0.00 0.00 10 1015.0
20260905061429 61 160 0.0 0.0 0.00 0.00 0.00 10 1015.0
20260905060929 61 152 0.0 0.0 0.00 0.00 0.00 10 1015.0
20260905060429 61 144 0.0 0.0 0.00 0.00 0.00 10 1015.0
20260905055929 61 170 0.0 0.0 0.00 0.00 0.00 10 1015.0
20260905055429 61 155 0.0 0.0 0.00 0.00 0.00 10 1014.0
20260905054929 61 167 0.0 0.0 0.00 0.00 0.00 10 1014.0
20260905054429 61 143 0.0 0.0 0.00 0.00 0.00 10 1014.0
20260905053928 61 152 0.0 0.0 0.00 0.00 0.00 10 1014.0
20260905053428 61 161 0.0 0.0 0.00 0.00 0.00 10 1014.0
20260905052929 60 155 0.0 0.0 0.00 0.00 0.00 10 1014.0
20260905052429 60 143 0.0 0.0 0.00 0.00 0.00 10 1014.0
20260905051927 60 169 0.0 0.0 0.00 0.00 0.00 10 1014.0
20260905051429 60 169 0.0 0.0 0.00 0.00 0.00 10 1014.0
20260905050929 60 170 0.0 0.0 0.00 0.00 0.00 10 1014.0
20260905050429 60 168 0.0 0.0 0.00 0.00 0.00 10 1014.0